N89AH KORF-KIAD

Flight info

Callsign N89AH
Flight time N/A
Altitude 4000
Route RIC COATT5
Aircraft H160/L-VGDW/C

Departure

Time 2026-04-26 02:50
Airport Norfolk International Airport (KORF)

Arrival

Time N/A
Airport Washington Dulles International Airport (KIAD)
Time Latitude Longitude Altitude Speed Heading
2026-04-26 02:41 36.89291 -76.20946 29 ft 0 kts 219°
2026-04-26 02:46 36.89284 -76.20937 19 ft 3 kts 73°
2026-04-26 02:46 36.89286 -76.20931 19 ft 0 kts 70°
2026-04-26 02:47 36.89285 -76.20885 28 ft 9 kts 93°
2026-04-26 02:47 36.89263 -76.20799 28 ft 11 kts 113°
2026-04-26 02:47 36.89235 -76.20721 30 ft 9 kts 127°
2026-04-26 02:48 36.89195 -76.20656 30 ft 10 kts 127°
2026-04-26 02:48 36.89145 -76.20573 30 ft 13 kts 128°
2026-04-26 02:48 36.89088 -76.20529 31 ft 11 kts 199°
2026-04-26 02:48 36.89021 -76.20583 33 ft 12 kts 208°
2026-04-26 02:49 36.88951 -76.20555 34 ft 12 kts 126°
2026-04-26 02:49 36.88950 -76.20477 33 ft 8 kts 39°
2026-04-26 02:49 36.89017 -76.20412 37 ft 18 kts 35°
2026-04-26 02:49 36.89167 -76.20208 209 ft 38 kts 45°
2026-04-26 02:50 36.89458 -76.19869 439 ft 77 kts 42°
2026-04-26 02:50 36.89887 -76.19435 385 ft 76 kts 39°
2026-04-26 02:50 36.90256 -76.18986 352 ft 75 kts 38°
2026-04-26 02:50 36.90716 -76.18472 647 ft 93 kts 37°
2026-04-26 02:51 36.91341 -76.18269 927 ft 100 kts 355°
2026-04-26 02:51 36.91884 -76.18774 1199 ft 104 kts 308°
2026-04-26 02:51 36.92071 -76.19649 1475 ft 104 kts 289°
2026-04-26 02:51 36.92211 -76.20554 1759 ft 108 kts 286°
2026-04-26 02:52 36.92383 -76.21477 2057 ft 109 kts 287°
2026-04-26 02:52 36.92576 -76.22361 2352 ft 106 kts 292°
2026-04-26 02:52 36.92965 -76.23152 2651 ft 107 kts 302°
2026-04-26 02:52 36.93395 -76.23918 2963 ft 108 kts 300°
2026-04-26 02:53 36.93815 -76.24670 3320 ft 103 kts 300°
2026-04-26 02:53 36.94222 -76.25406 3666 ft 104 kts 298°
2026-04-26 02:53 36.94644 -76.26166 3886 ft 108 kts 301°
2026-04-26 02:53 36.95081 -76.26938 3947 ft 113 kts 300°
2026-04-26 02:54 36.95570 -76.27848 3971 ft 137 kts 301°
2026-04-26 02:54 36.96125 -76.28882 3987 ft 147 kts 300°
2026-04-26 02:54 36.96702 -76.29955 3997 ft 154 kts 300°
2026-04-26 02:54 36.97310 -76.31093 4000 ft 159 kts 300°
2026-04-26 02:55 36.97930 -76.32250 4011 ft 161 kts 300°
2026-04-26 02:55 36.98551 -76.33407 4011 ft 162 kts 301°
2026-04-26 02:55 36.99183 -76.34589 4011 ft 163 kts 301°
2026-04-26 02:55 36.99811 -76.35766 4011 ft 162 kts 300°
2026-04-26 02:56 37.00437 -76.36940 3984 ft 162 kts 301°
2026-04-26 02:56 37.01054 -76.38100 3983 ft 162 kts 300°
2026-04-26 02:56 37.01677 -76.39275 3984 ft 162 kts 301°
2026-04-26 02:56 37.02302 -76.40451 3977 ft 162 kts 300°
2026-04-26 02:57 37.02924 -76.41625 3983 ft 162 kts 301°
2026-04-26 02:57 37.03546 -76.42799 3983 ft 162 kts 300°
2026-04-26 02:57 37.04167 -76.43971 3983 ft 161 kts 299°
2026-04-26 02:57 37.04786 -76.45139 3983 ft 161 kts 300°
2026-04-26 02:58 37.05403 -76.46307 4011 ft 161 kts 300°
2026-04-26 02:58 37.06014 -76.47460 4006 ft 161 kts 300°
2026-04-26 02:58 37.06634 -76.48632 4011 ft 162 kts 301°
2026-04-26 02:58 37.07259 -76.49816 4011 ft 163 kts 301°
2026-04-26 02:59 37.07883 -76.50996 4009 ft 163 kts 303°
2026-04-26 02:59 37.08508 -76.52176 4009 ft 162 kts 303°
2026-04-26 02:59 37.09129 -76.53351 4010 ft 161 kts 303°
2026-04-26 02:59 37.09746 -76.54519 4009 ft 161 kts 303°
2026-04-26 03:00 37.10361 -76.55685 3980 ft 161 kts 303°
2026-04-26 03:00 37.10979 -76.56855 3981 ft 161 kts 303°
2026-04-26 03:00 37.11591 -76.58015 3982 ft 162 kts 303°
2026-04-26 03:00 37.12212 -76.59191 3982 ft 162 kts 303°
2026-04-26 03:01 37.12836 -76.60375 3985 ft 163 kts 303°
2026-04-26 03:01 37.13461 -76.61560 3984 ft 163 kts 303°
2026-04-26 03:01 37.14084 -76.62743 3983 ft 163 kts 303°
2026-04-26 03:01 37.14707 -76.63926 3983 ft 163 kts 303°
2026-04-26 03:02 37.15331 -76.65111 3981 ft 163 kts 303°
2026-04-26 03:02 37.15956 -76.66300 3975 ft 163 kts 303°
2026-04-26 03:02 37.16581 -76.67486 3964 ft 163 kts 303°
2026-04-26 03:02 37.17198 -76.68659 3961 ft 164 kts 303°
2026-04-26 03:03 37.17823 -76.69849 3960 ft 163 kts 303°
2026-04-26 03:03 37.18448 -76.71038 3950 ft 162 kts 303°
2026-04-26 03:03 37.19066 -76.72217 3959 ft 162 kts 303°
2026-04-26 03:03 37.19683 -76.73392 3948 ft 161 kts 303°
2026-04-26 03:04 37.20298 -76.74565 3953 ft 161 kts 303°
2026-04-26 03:04 37.20909 -76.75738 3965 ft 161 kts 302°
2026-04-26 03:04 37.21521 -76.76924 3959 ft 162 kts 302°
2026-04-26 03:04 37.22139 -76.78113 3961 ft 163 kts 302°
2026-04-26 03:05 37.22751 -76.79287 3956 ft 163 kts 302°
2026-04-26 03:05 37.23373 -76.80477 3956 ft 163 kts 302°
2026-04-26 03:05 37.23996 -76.81667 3953 ft 163 kts 302°
2026-04-26 03:05 37.24622 -76.82870 3959 ft 166 kts 302°
2026-04-26 03:06 37.25255 -76.84080 3956 ft 165 kts 302°
2026-04-26 03:06 37.25887 -76.85283 3962 ft 165 kts 302°
2026-04-26 03:06 37.26519 -76.86487 3964 ft 165 kts 302°
2026-04-26 03:06 37.27145 -76.87680 4006 ft 162 kts 304°
2026-04-26 03:07 37.27762 -76.88857 4006 ft 161 kts 304°
2026-04-26 03:07 37.28368 -76.90014 4005 ft 160 kts 304°
2026-04-26 03:07 37.28979 -76.91182 4004 ft 160 kts 304°
2026-04-26 03:07 37.29588 -76.92346 3998 ft 159 kts 304°
2026-04-26 03:08 37.30194 -76.93507 4004 ft 159 kts 304°
2026-04-26 03:08 37.30798 -76.94664 4007 ft 158 kts 304°
2026-04-26 03:08 37.31399 -76.95815 4006 ft 157 kts 304°
2026-04-26 03:08 37.31998 -76.96964 4006 ft 157 kts 304°
2026-04-26 03:09 37.32597 -76.98111 4007 ft 156 kts 304°
2026-04-26 03:09 37.33193 -76.99253 4007 ft 156 kts 304°
2026-04-26 03:09 37.33778 -77.00376 4008 ft 156 kts 304°
2026-04-26 03:09 37.34372 -77.01515 4008 ft 156 kts 304°
2026-04-26 03:10 37.34964 -77.02652 4006 ft 156 kts 304°
2026-04-26 03:10 37.35556 -77.03788 4000 ft 156 kts 304°
2026-04-26 03:10 37.36150 -77.04928 4006 ft 156 kts 304°
2026-04-26 03:10 37.36743 -77.06067 4001 ft 156 kts 304°
2026-04-26 03:11 37.37335 -77.07205 3999 ft 155 kts 304°
2026-04-26 03:11 37.37925 -77.08338 4007 ft 155 kts 304°
2026-04-26 03:11 37.38514 -77.09470 4002 ft 155 kts 304°
2026-04-26 03:11 37.39094 -77.10587 4000 ft 155 kts 303°
2026-04-26 03:12 37.39686 -77.11726 4008 ft 156 kts 303°
2026-04-26 03:12 37.40280 -77.12870 4007 ft 157 kts 303°
2026-04-26 03:12 37.40877 -77.14020 4007 ft 157 kts 304°
2026-04-26 03:12 37.41474 -77.15169 4007 ft 157 kts 303°
2026-04-26 03:13 37.42068 -77.16315 4003 ft 157 kts 303°
2026-04-26 03:13 37.42663 -77.17462 3999 ft 156 kts 303°
2026-04-26 03:13 37.43257 -77.18606 4002 ft 156 kts 303°
2026-04-26 03:13 37.43849 -77.19747 4006 ft 155 kts 303°
2026-04-26 03:14 37.44431 -77.20870 4005 ft 155 kts 303°
2026-04-26 03:14 37.45020 -77.22007 4005 ft 155 kts 303°
2026-04-26 03:14 37.45609 -77.23144 4007 ft 155 kts 303°
2026-04-26 03:14 37.46196 -77.24278 4002 ft 155 kts 303°
2026-04-26 03:15 37.46783 -77.25412 3997 ft 155 kts 303°
2026-04-26 03:15 37.47372 -77.26549 4004 ft 155 kts 303°
2026-04-26 03:15 37.47958 -77.27683 4004 ft 155 kts 303°
2026-04-26 03:15 37.48545 -77.28819 4005 ft 155 kts 303°
2026-04-26 03:16 37.49133 -77.29952 4004 ft 154 kts 303°
2026-04-26 03:16 37.49720 -77.31061 4004 ft 155 kts 306°
2026-04-26 03:16 37.50532 -77.31938 4004 ft 155 kts 324°
2026-04-26 03:16 37.51478 -77.32617 4005 ft 158 kts 330°
2026-04-26 03:17 37.52463 -77.33232 4006 ft 158 kts 332°
2026-04-26 03:17 37.53463 -77.33825 4000 ft 159 kts 333°
2026-04-26 03:17 37.54472 -77.34407 4001 ft 160 kts 333°
2026-04-26 03:17 37.55483 -77.34984 3997 ft 160 kts 334°
2026-04-26 03:18 37.56499 -77.35559 4005 ft 160 kts 334°
2026-04-26 03:18 37.57507 -77.36128 4004 ft 162 kts 334°
2026-04-26 03:18 37.58536 -77.36707 4005 ft 162 kts 334°
2026-04-26 03:18 37.59567 -77.37285 4001 ft 162 kts 335°
2026-04-26 03:19 37.60594 -77.37862 4003 ft 162 kts 335°
2026-04-26 03:19 37.61622 -77.38439 4013 ft 161 kts 334°
2026-04-26 03:19 37.62651 -77.39016 4011 ft 162 kts 334°
2026-04-26 03:19 37.63676 -77.39592 4013 ft 161 kts 335°
2026-04-26 03:20 37.64698 -77.40166 4012 ft 162 kts 334°
2026-04-26 03:20 37.65728 -77.40745 4014 ft 162 kts 334°
2026-04-26 03:20 37.66738 -77.41311 4014 ft 161 kts 334°
2026-04-26 03:20 37.67760 -77.41885 4014 ft 161 kts 334°
2026-04-26 03:21 37.68782 -77.42459 4008 ft 162 kts 334°
2026-04-26 03:21 37.69781 -77.43022 4011 ft 163 kts 334°
2026-04-26 03:21 37.70815 -77.43603 4013 ft 163 kts 334°
2026-04-26 03:21 37.71839 -77.44180 4011 ft 160 kts 334°
2026-04-26 03:22 37.72852 -77.44751 4014 ft 159 kts 334°
2026-04-26 03:22 37.73860 -77.45319 4011 ft 159 kts 334°
2026-04-26 03:22 37.74852 -77.45879 4022 ft 157 kts 334°
2026-04-26 03:22 37.75833 -77.46432 4135 ft 150 kts 333°
2026-04-26 03:23 37.76764 -77.46957 4314 ft 145 kts 333°
2026-04-26 03:23 37.77684 -77.47478 4508 ft 144 kts 332°
2026-04-26 03:23 37.78607 -77.48001 4708 ft 147 kts 332°
2026-04-26 03:23 37.79554 -77.48536 4908 ft 151 kts 333°
2026-04-26 03:24 37.80503 -77.49071 5160 ft 147 kts 332°
2026-04-26 03:24 37.81425 -77.49592 5420 ft 143 kts 331°
2026-04-26 03:24 37.82316 -77.50096 5668 ft 138 kts 330°
2026-04-26 03:24 37.83180 -77.50585 5923 ft 134 kts 330°
2026-04-26 03:25 37.84030 -77.51068 6152 ft 135 kts 329°
2026-04-26 03:25 37.84885 -77.51554 6351 ft 138 kts 330°
2026-04-26 03:25 37.85764 -77.52053 6543 ft 140 kts 330°
2026-04-26 03:25 37.86652 -77.52556 6731 ft 140 kts 330°
2026-04-26 03:26 37.87552 -77.53064 6877 ft 143 kts 331°
2026-04-26 03:26 37.88496 -77.53595 6824 ft 155 kts 332°
2026-04-26 03:26 37.89525 -77.54177 6705 ft 168 kts 332°
2026-04-26 03:26 37.90615 -77.54788 6587 ft 174 kts 333°
2026-04-26 03:27 37.91727 -77.55410 6501 ft 176 kts 333°
2026-04-26 03:27 37.92835 -77.56026 6444 ft 170 kts 333°
2026-04-26 03:27 37.93921 -77.56626 6311 ft 171 kts 333°
2026-04-26 03:27 37.95007 -77.57182 6155 ft 173 kts 342°
2026-04-26 03:28 37.96230 -77.57133 6080 ft 180 kts
2026-04-26 03:28 37.97435 -77.56667 6053 ft 182 kts 16°
2026-04-26 03:28 37.98610 -77.56059 6037 ft 183 kts 19°
2026-04-26 03:28 37.99774 -77.55407 6041 ft 182 kts 18°
2026-04-26 03:29 38.00980 -77.55063 6033 ft 176 kts
2026-04-26 03:29 38.02189 -77.55050 6031 ft 173 kts 354°
2026-04-26 03:29 38.03388 -77.55142 6029 ft 173 kts 352°
2026-04-26 03:29 38.04584 -77.55256 6029 ft 172 kts 352°
2026-04-26 03:30 38.05762 -77.55078 6029 ft 177 kts 14°
2026-04-26 03:30 38.06839 -77.54309 6030 ft 181 kts 36°
2026-04-26 03:30 38.07751 -77.53178 6029 ft 184 kts 44°
2026-04-26 03:30 38.08579 -77.51934 6029 ft 185 kts 47°
2026-04-26 03:31 38.09456 -77.50745 6031 ft 184 kts 40°
2026-04-26 03:31 38.10431 -77.49711 6031 ft 182 kts 33°
2026-04-26 03:31 38.11476 -77.48818 6030 ft 181 kts 28°
2026-04-26 03:31 38.12560 -77.48021 6030 ft 180 kts 25°
2026-04-26 03:32 38.13655 -77.47288 6029 ft 180 kts 24°
2026-04-26 03:32 38.14776 -77.46577 5984 ft 180 kts 22°
2026-04-26 03:32 38.15902 -77.45882 5973 ft 180 kts 22°
2026-04-26 03:32 38.17027 -77.45203 5963 ft 179 kts 21°
2026-04-26 03:33 38.18195 -77.44725 5960 ft 174 kts
2026-04-26 03:33 38.19387 -77.44806 5957 ft 170 kts 349°
2026-04-26 03:33 38.20558 -77.45022 5956 ft 170 kts 348°
2026-04-26 03:33 38.21734 -77.45224 5960 ft 171 kts 349°
2026-04-26 03:34 38.22915 -77.45389 5956 ft 171 kts 352°
2026-04-26 03:34 38.24099 -77.45521 5954 ft 171 kts 353°
2026-04-26 03:34 38.25267 -77.45629 5954 ft 171 kts 353°
2026-04-26 03:34 38.26453 -77.45726 5953 ft 171 kts 354°
2026-04-26 03:35 38.27637 -77.45814 5954 ft 171 kts 354°
2026-04-26 03:35 38.28824 -77.45898 5953 ft 171 kts 354°
2026-04-26 03:35 38.30011 -77.45979 5953 ft 171 kts 354°
2026-04-26 03:35 38.31199 -77.46058 5954 ft 171 kts 354°
2026-04-26 03:36 38.32388 -77.46136 5953 ft 171 kts 355°
2026-04-26 03:36 38.33560 -77.46213 5953 ft 171 kts 355°
2026-04-26 03:36 38.34746 -77.46290 5953 ft 171 kts 355°
2026-04-26 03:36 38.35934 -77.46367 5953 ft 171 kts 354°
2026-04-26 03:37 38.37122 -77.46445 5954 ft 171 kts 355°
2026-04-26 03:37 38.38309 -77.46521 5953 ft 171 kts 355°
2026-04-26 03:37 38.39496 -77.46598 5953 ft 171 kts 355°
2026-04-26 03:37 38.40686 -77.46657 5953 ft 171 kts 356°
2026-04-26 03:38 38.41879 -77.46692 5953 ft 171 kts 356°
2026-04-26 03:38 38.43071 -77.46707 5953 ft 172 kts 357°
2026-04-26 03:38 38.44264 -77.46709 5953 ft 172 kts 358°
2026-04-26 03:38 38.45443 -77.46704 5958 ft 172 kts 358°
2026-04-26 03:39 38.46636 -77.46692 5956 ft 171 kts 358°
2026-04-26 03:39 38.47825 -77.46678 5954 ft 171 kts 358°
2026-04-26 03:39 38.49016 -77.46664 5954 ft 171 kts 359°
2026-04-26 03:39 38.50206 -77.46648 5955 ft 171 kts 359°
2026-04-26 03:40 38.51396 -77.46632 5955 ft 170 kts 358°
2026-04-26 03:40 38.52582 -77.46616 5956 ft 171 kts 359°
2026-04-26 03:40 38.53767 -77.46600 5980 ft 171 kts 358°
2026-04-26 03:40 38.54954 -77.46583 5980 ft 170 kts 358°
2026-04-26 03:41 38.56123 -77.46566 5980 ft 170 kts 358°
2026-04-26 03:41 38.57309 -77.46550 5980 ft 170 kts 358°
2026-04-26 03:41 38.58496 -77.46533 5980 ft 170 kts 358°
2026-04-26 03:41 38.59679 -77.46516 5980 ft 170 kts 358°
2026-04-26 03:42 38.60864 -77.46499 5980 ft 170 kts 359°
2026-04-26 03:42 38.62051 -77.46482 5980 ft 171 kts 358°
2026-04-26 03:42 38.63238 -77.46464 5979 ft 171 kts 358°
2026-04-26 03:42 38.64427 -77.46447 5980 ft 171 kts 358°
2026-04-26 03:43 38.65601 -77.46430 5980 ft 171 kts 358°
2026-04-26 03:43 38.66790 -77.46412 5981 ft 170 kts 358°
2026-04-26 03:43 38.67978 -77.46395 6004 ft 171 kts 358°
2026-04-26 03:43 38.69164 -77.46377 6003 ft 170 kts 359°
2026-04-26 03:44 38.70350 -77.46359 6000 ft 170 kts 358°
2026-04-26 03:44 38.71535 -77.46342 6000 ft 170 kts 359°
2026-04-26 03:44 38.72722 -77.46325 6000 ft 170 kts 359°
2026-04-26 03:44 38.73907 -77.46308 6000 ft 170 kts 359°
2026-04-26 03:45 38.75090 -77.46292 5999 ft 170 kts 359°
2026-04-26 03:45 38.76254 -77.46269 5837 ft 168 kts
2026-04-26 03:45 38.77412 -77.46209 5431 ft 160 kts
2026-04-26 03:45 38.78468 -77.46152 5036 ft 145 kts
2026-04-26 03:46 38.79472 -77.46136 4650 ft 144 kts 359°
2026-04-26 03:46 38.80467 -77.46135 4268 ft 142 kts 359°
2026-04-26 03:46 38.81459 -77.46129 3890 ft 143 kts 359°
2026-04-26 03:47 38.83441 -77.46103 3141 ft 142 kts 359°